Flag for Canada Weather past 2 weeks in Happy Valley-Goose Bay, Newfoundland and Labrador, Canada

Now
-9 °F

Clear.


Feels Like: -29 °F
Forecast: -9 / 13 °F
Wind: 12 mph from West

Location: Goose

Current Time: Mar 1, 2015 at 3:04:47 AM

Latest Report: Mar 1, 2015 at 2:00 AM


Visibility: 15 mi

Pressure: 30.22 "Hg

Humidity: 58%

Dew point: -20 °F

Location of Happy Valley-Goose BayLocation

Historic Weather in Happy Valley-Goose Bay — Graph

°F

Happy Valley-Goose Bay temperature yesterday

Maximum temperature yesterday: 3 °F (at 3:00 PM)
Minimum temperature yesterday: -17 °F (at 7:00 AM)
Average temperature yesterday: -7 °F

Past Weeks' High & Low Weather Summary

 TemperatureHumidityPressure
High21 °F (Feb 20, 2:00 PM)79% (Feb 20, 12:00 PM)30.25 "Hg (Feb 20, 12:00 PM)
Low-20 °F (Feb 25, 6:00 AM)37% (Feb 28, 12:00 PM)29.04 "Hg (Feb 16, 7:00 PM)
Average-1 °F58%29.81 "Hg
* Reported Feb 14 2:00 AM — Mar 1 2:00 AM, Happy Valley-Goose Bay, Weather by CustomWeather, © 2015

Note: Actual official high and low records may vary slightly from our data, if they occured in-between our weather recording intervals... More about our weather records

Advertising

Happy Valley-Goose Bay weather history for previous 24 hours

 ConditionsComfort  
Time TempWeatherWind HumidityBarometerVisibility
2:00 AM
Sun, Mar 1
-9 °FClear.12 mph58%30.22 "Hg15 mi
1:00 AM-8 °FClear.12 mph58%30.21 "Hg15 mi
12:00 AM-9 °FPassing clouds.10 mph58%30.20 "Hg15 mi
11:00 PM
Sat, Feb 28
-9 °FPassing clouds.6 mph48%30.20 "Hg15 mi
10:00 PM-9 °FPassing clouds.5 mph53%30.20 "Hg15 mi
9:00 PM-6 °FClear.5 mph49%30.19 "Hg15 mi
8:00 PM0 °FClear.6 mph50%30.18 "Hg15 mi
7:00 PM3 °FClear.9 mph42%30.18 "Hg15 mi
6:00 PM1 °FPassing clouds.9 mph42%30.16 "Hg15 mi
5:00 PM3 °FPassing clouds.15 mph38%30.14 "Hg15 mi
4:00 PM3 °FLow level haze.16 mph38%30.14 "Hg15 mi
3:00 PM3 °FLow level haze.22 mph38%30.13 "Hg15 mi
2:00 PM0 °FLow level haze.18 mph41%30.13 "Hg15 mi
1:00 PM-2 °FPassing clouds.17 mph41%30.14 "Hg15 mi
12:00 PM-2 °FSunny.17 mph37%30.15 "Hg15 mi
11:00 AM-8 °FSunny.20 mph48%30.15 "Hg15 mi
10:00 AM-9 °FSunny.22 mph48%30.16 "Hg15 mi
9:00 AM-13 °FSunny.15 mph47%30.16 "Hg15 mi
8:00 AM-17 °FSunny.12 mph51%30.15 "Hg15 mi
7:00 AM-17 °FSunny.16 mph51%30.13 "Hg15 mi
6:00 AM-15 °FClear.15 mph47%30.11 "Hg15 mi
5:00 AM-15 °FClear.13 mph47%30.09 "Hg15 mi
4:00 AM-15 °FClear.8 mph47%30.08 "Hg15 mi
3:00 AM-13 °FClear.13 mph47%30.06 "Hg15 mi
Weather by CustomWeather, © 2015

See weather overviewHow to use our weather pages